Weather in Araar

Saudi Arabia     30°58′18″N   41°01′27″E
В апреле 2022 года жителям России запретили посещать сайт meteo.paraplan.net по решению Генеральной прокуратуры. Аудитория сайта уменьшилась в 10 раз. Владельцы сайта не видят смысла в поддержке погодного сервера в таких условиях. Сайт будет закрыт в октябре.
temp.,
°C
wind,
m/s
gust,
m/s
humid.,
%
clouds,
%
prec.,
mm/h
press.,
hPa
HPBL,
m
6 october, thu
thu600:00+28s56146 0.0 101363
03:00+26s44160 0.0 101329
06:00+24w33184 0.0 101415
09:00+30sw58130 0.0 1014349
12:00+37ssw7780 0.0 10121938
15:00+38sw5580 0.0 10093899
18:00+32sw22110 0.0 100911
21:00+30se44125 0.0 101015
7 october, fri
fri700:00+27sw44143 0.0 101130
03:00+26ssw44150 0.0 101032
06:00+25sw55195 0.0 101135
09:00+30sw56204 0.0 1011335
12:00+36wsw45120 0.0 10091980
15:00+37sw5595 0.0 10074180
18:00+33ssw55115 0.0 100835
21:00+29s111411 0.0 100911
8 october, sat
sat800:00+27s22150 0.0 100911
03:00+25sw22165 0.0 100911
06:00+25ssw44168 0.0 101020
09:00+30ssw58114 0.0 1011348
12:00+37s91172 0.0 10092222
15:00+37ssw8985 0.0 10073032
18:00+32wsw44136 0.0 100713
21:00+28wnw222185 0.0 100812
9 october, sun
sun900:00+27nnw332599 0.0 100815
03:00+25wnw56358 0.0 100966
06:00+22nnw59435 0.0 1010126
09:00+26n67360 0.0 1011475
12:00+31nnw43250 0.0 10111090
15:00+33nw33210 0.0 10091608
18:00+30n33250 0.0 101012
21:00+27nne44320 0.0 101229
10 october, mon
mon1000:00+25n45390 0.0 101266
03:00+22ne34460 0.0 101446
06:00+21nne46490 0.0 101585
09:00+25ne56380 0.0 1016515
12:00+29ene55280 0.0 10141144
15:00+31ene43230 0.0 10131654
18:00+28ene44260 0.0 101340
21:00+25ene45290 0.0 101456